Location: Antichan
(42.9728°N, 0.6667°E)
Time: 17:37:55
(UTC+00:00)

Okean 1-7 - Pass Details

Date: 15 August 2020
Orbit: 590 x 619 km, 82.5° (Epoch: 17 September)

Event Time Altitude Azimuth Distance (km) Brightness Sun altitude
Rises 20:54:37 0° 355° (N) 2,862 7.2 -19.0°
Reaches altitude 10° 20:56:52 10° 358° (N) 1,949 6.2 -19.3°
Maximum altitude 21:01:09 63° 80° (E) 671 3.0 -19.9°
Enters shadow 21:01:52 53° 127° (SE) 739 3.0 -20.0°
